Theta_e
348 346 343 340 340 340 341 342 343 344 345 346 347 348 348 348 348 347 347 346 346 347 347 347 347 348 348 348 348 347 346 345 344 338 329 328 327 329 332 330 329 332 334 337 338 338 339 340 340 338 339 340 341 342 344 344 345 345 344 343 343 343 344 344 344 344 344 345 345 346 346 346 346 346 346 347 347 347 348 348 348 348 348 348 347
347 345 342 340 339 339 340 341 343 345 347 348 348 348 348 348 348 346 346 346 346 346 346 346 347 347 347 347 347 346 345 345 343 334 326 327 327 328 334 336 333 334 336 337 338 337 337 337 337 336 337 339 340 341 341 341 341 341 340 340 341 342 343 344 345 345 345 345 346 346 346 346 346 346 346 347 350 351 351 350 350 350 349 349 348
345 344 341 339 338 340 342 344 346 347 348 349 348 349 348 347 348 347 346 346 346 345 345 345 346 345 346 345 345 345 345 345 340 330 326 327 328 328 335 340 337 335 336 336 337 336 336 335 336 335 336 338 339 340 340 340 340 340 340 341 342 343 344 345 345 345 345 345 345 345 345 345 345 346 348 351 353 354 353 352 353 353 351 349 348
344 343 342 341 342 344 346 347 347 348 349 348 348 349 348 347 347 347 346 346 346 345 344 344 345 344 344 345 345 345 344 344 337 329 327 328 329 329 332 337 339 338 336 336 336 336 335 334 334 335 336 338 338 338 339 339 340 340 341 342 344 344 344 345 345 346 346 345 345 346 346 347 347 349 352 354 355 354 354 353 353 353 351 349 349
346 345 345 346 346 347 347 347 348 349 349 348 349 348 348 348 347 346 346 346 345 344 343 343 344 344 344 345 345 345 344 340 335 332 331 331 331 333 333 334 337 338 336 336 336 336 335 334 333 334 335 336 337 338 338 339 339 341 342 343 344 344 346 347 348 348 348 347 347 348 348 347 348 349 350 351 350 349 348 348 348 348 348 347 348
348 347 347 347 347 347 347 347 348 349 349 349 349 349 348 348 347 346 346 345 345 344 344 342 343 344 343 344 344 345 345 338 333 333 333 333 333 333 333 334 333 334 334 334 334 334 333 333 332 333 335 336 337 337 338 339 340 342 343 344 343 346 349 350 349 349 348 348 349 348 346 345 345 345 345 343 343 342 342 343 343 343 344 345 347
347 347 347 347 346 347 347 347 348 349 349 349 349 349 348 347 346 345 345 344 345 344 343 343 343 343 343 344 344 345 346 341 336 334 333 334 335 334 332 332 332 331 331 331 331 331 331 331 331 333 334 336 337 338 340 341 341 343 343 343 345 349 350 349 348 349 348 349 348 345 343 343 343 343 341 340 340 341 342 342 343 343 343 343 345
347 347 347 347 347 346 347 347 348 348 349 349 349 349 348 347 346 344 343 343 344 343 343 343 342 343 343 343 343 344 345 345 343 339 337 339 341 340 338 335 334 332 330 330 330 330 331 331 332 334 335 337 339 341 342 342 343 343 343 345 348 350 350 348 348 348 349 350 346 342 343 343 342 342 341 341 340 341 342 344 346 346 346 345 345
347 348 348 348 347 346 347 347 347 348 349 349 349 349 348 348 346 343 343 342 343 343 342 343 342 343 343 343 343 343 344 345 346 345 342 343 343 344 343 342 340 337 334 332 331 332 332 333 334 335 337 339 341 342 343 343 343 343 344 348 350 350 351 349 348 349 350 350 346 342 344 342 342 344 343 341 341 341 342 345 347 349 349 349 348
347 348 348 348 347 346 347 347 347 348 349 348 349 350 350 348 345 342 342 342 342 342 342 342 342 342 342 343 343 343 344 345 345 346 345 344 344 343 343 343 342 341 339 337 336 336 335 335 335 336 338 339 340 342 343 343 344 344 346 349 350 351 352 351 349 349 350 351 347 343 343 342 341 343 343 343 341 340 342 345 347 350 350 351 350
347 348 349 348 347 347 347 347 347 348 349 348 350 350 349 348 345 343 342 341 341 341 341 341 341 341 341 342 342 343 343 344 344 344 344 343 343 342 342 342 342 341 340 340 340 339 339 338 337 337 338 339 340 342 343 344 344 345 346 348 349 350 353 352 350 350 350 351 347 343 343 342 341 343 344 343 341 340 342 345 347 349 351 351 350
347 349 349 348 347 347 347 347 347 348 349 349 351 350 349 349 347 345 343 341 341 342 341 340 340 340 340 341 341 342 343 344 344 343 342 342 342 342 342 342 341 341 340 340 340 340 340 340 339 339 339 339 340 341 342 343 343 344 344 346 348 351 352 352 352 350 350 351 347 343 343 343 342 343 344 343 341 340 342 345 346 348 351 351 349
348 350 349 348 347 347 347 347 348 349 349 349 350 351 350 349 347 346 343 342 342 342 342 340 339 339 340 340 340 341 341 342 342 342 342 341 342 342 342 342 341 340 341 340 340 339 339 339 339 339 339 339 340 341 342 342 341 343 344 345 347 351 352 353 353 350 350 351 347 344 343 344 344 344 344 342 340 341 342 344 345 347 350 351 350
349 350 350 348 347 347 347 347 348 350 349 349 350 351 351 349 348 346 344 343 342 342 343 340 340 340 339 340 342 342 340 340 341 341 341 342 342 342 342 342 340 340 340 340 340 340 340 340 339 339 339 339 339 341 342 342 341 342 344 345 347 351 352 353 353 350 350 351 347 344 344 344 344 344 343 341 340 342 343 343 345 346 348 350 351
349 350 349 348 347 347 347 347 349 350 350 350 351 351 351 350 349 347 345 344 343 343 343 343 342 340 341 346 347 348 349 343 341 341 341 342 341 340 340 340 340 339 340 340 340 340 339 340 339 339 339 339 339 340 341 341 341 342 344 344 347 351 352 353 353 350 351 350 346 345 344 345 345 344 342 341 342 343 343 344 345 346 347 349 351
349 349 349 349 347 347 347 347 348 350 350 349 350 352 351 351 349 348 347 345 344 343 343 344 343 341 345 349 345 349 356 348 342 342 341 342 341 338 338 338 339 339 339 339 339 339 339 339 339 339 339 339 340 340 340 340 341 343 345 345 347 351 352 353 353 351 350 349 347 346 346 345 344 343 342 342 343 344 344 345 346 347 347 348 349
348 349 349 349 347 346 346 347 348 349 350 350 350 351 352 351 350 349 348 346 345 344 343 343 344 343 344 347 345 351 357 347 343 345 340 341 341 339 338 338 338 338 338 339 338 338 339 338 338 338 339 339 339 340 340 340 343 344 345 346 349 352 352 353 353 351 350 349 347 346 346 345 343 342 343 344 344 345 345 345 346 346 347 347 347
348 348 349 350 347 346 346 346 347 348 349 350 350 351 352 351 350 350 349 349 347 345 345 344 344 344 343 344 345 348 351 346 347 349 343 340 340 340 339 338 338 338 337 337 337 337 338 338 339 338 339 339 339 340 340 341 346 345 345 349 351 352 352 352 352 350 350 349 347 346 345 344 343 344 345 346 345 346 345 345 346 346 346 345 345
348 349 350 350 348 346 346 346 346 348 349 349 350 350 352 351 351 351 351 350 349 347 347 345 343 344 344 345 344 346 347 346 349 351 349 347 342 338 339 339 339 338 338 338 338 338 339 339 339 339 339 340 340 340 340 343 346 345 346 349 351 351 352 351 351 349 349 349 347 346 345 343 344 345 346 346 346 346 346 346 345 345 345 343 342
348 348 349 350 348 346 346 345 346 349 349 349 349 350 351 351 351 351 351 351 350 348 347 346 344 344 345 346 346 347 346 346 347 346 350 356 353 345 342 340 340 340 339 339 339 339 340 340 340 340 340 340 341 342 343 344 346 346 348 351 352 351 352 351 349 348 348 348 346 345 344 345 345 346 346 346 346 346 346 345 345 344 344 343 340
346 347 348 350 348 346 345 345 347 349 349 348 348 350 351 351 351 350 351 352 350 348 347 345 345 345 346 346 345 346 346 345 345 343 346 353 357 354 346 343 343 342 341 341 340 340 340 340 340 339 340 340 341 342 344 345 346 348 351 351 351 351 352 351 348 347 346 347 345 344 345 346 346 347 347 346 347 346 345 344 344 343 343 342 340
344 345 346 350 350 347 346 346 347 348 348 348 347 350 351 350 351 350 350 352 350 349 348 346 346 346 346 346 345 346 346 345 344 344 343 344 350 352 345 345 349 346 343 344 343 342 341 340 340 339 340 341 341 341 343 344 345 348 350 350 350 350 351 350 347 345 345 345 344 345 346 346 347 348 347 347 347 345 344 343 342 342 341 340 339
343 342 343 348 350 348 347 347 347 348 348 348 348 350 351 350 351 350 350 351 351 351 351 349 349 348 347 347 347 347 347 346 345 344 343 343 348 349 344 344 348 346 345 345 345 345 345 343 341 341 342 342 342 341 341 342 344 345 348 348 349 350 350 349 346 345 343 343 344 345 347 347 347 348 348 347 346 344 343 343 341 340 338 336 335
345 343 341 345 350 349 348 348 348 348 348 348 349 350 351 351 351 350 349 351 351 352 352 351 351 351 350 350 350 349 349 349 348 346 344 343 346 347 344 346 349 346 344 345 346 347 347 345 344 342 343 344 343 342 342 343 345 346 347 348 348 349 349 348 346 344 343 343 344 346 347 348 348 348 348 346 345 343 343 342 340 338 336 333 331
347 344 341 344 349 349 349 350 349 350 349 349 350 351 351 351 351 351 350 350 351 351 352 351 352 352 352 352 352 352 350 349 347 346 345 343 344 346 345 346 349 347 345 346 347 347 347 347 346 345 345 345 344 345 345 344 346 348 348 348 348 348 348 347 346 344 343 343 344 346 347 348 349 348 347 346 344 343 343 341 339 338 337 333 330
345 343 344 346 349 350 350 350 350 351 351 350 351 352 351 351 352 352 352 351 350 350 351 351 351 352 352 353 354 353 352 350 347 346 346 344 344 346 345 345 346 345 346 347 347 347 347 348 348 346 345 345 345 346 347 347 348 350 349 349 348 348 348 347 346 344 343 343 343 345 347 348 350 349 346 345 344 343 343 341 340 338 335 331 329
344 344 346 349 350 351 351 350 350 351 351 351 353 353 353 352 353 353 352 351 350 350 351 351 351 352 353 353 354 353 352 351 350 349 349 348 346 345 345 349 351 349 347 348 346 346 347 348 348 347 345 346 346 347 348 349 350 350 349 348 349 349 348 349 349 348 346 344 343 344 346 348 350 349 346 345 344 343 343 340 338 335 330 327 327
344 346 348 349 350 352 352 351 350 350 351 352 354 355 354 353 353 353 352 351 351 352 353 353 353 353 353 354 354 353 353 353 352 352 351 350 349 347 345 348 352 354 355 358 354 348 347 348 348 347 346 347 348 348 349 349 350 349 349 348 348 348 349 348 349 350 350 347 345 344 345 348 350 349 347 345 344 343 341 334 330 328 325 324 327
346 347 349 349 350 351 352 351 351 351 352 353 354 355 354 354 353 353 353 352 351 353 355 355 354 354 355 355 355 355 354 354 352 352 351 350 348 347 347 346 347 353 360 365 360 350 346 348 347 348 348 347 350 351 350 350 350 350 350 350 348 348 348 347 347 348 350 350 347 345 346 349 350 349 347 345 345 343 338 328 324 324 324 323 326
348 349 350 350 349 350 351 351 352 353 353 353 354 353 353 353 353 353 353 353 353 354 355 354 353 355 356 357 357 357 356 355 353 352 351 351 349 347 348 347 346 349 353 358 357 349 346 348 348 349 349 349 352 353 350 351 351 351 352 351 351 349 348 347 346 347 349 351 349 346 346 349 350 349 347 345 345 342 334 326 323 324 323 322 327
349 348 349 349 350 350 351 351 353 353 354 353 353 353 353 353 354 353 354 353 353 354 354 353 353 354 357 357 358 357 356 356 355 354 353 352 351 349 349 349 348 348 347 350 354 351 347 348 349 348 349 350 353 353 350 351 351 351 351 351 350 349 349 348 346 347 349 351 349 346 347 349 350 349 347 346 345 339 332 327 323 323 323 321 326
349 348 348 349 349 350 351 352 353 353 353 353 352 353 353 353 353 354 354 353 353 353 353 353 354 355 357 357 356 356 355 356 356 356 355 354 353 352 350 350 348 348 347 347 351 351 348 348 348 348 350 352 354 354 352 351 351 350 350 349 349 349 350 350 349 349 350 351 350 347 348 350 350 349 348 346 344 338 333 328 322 323 322 317 322
350 349 348 349 348 349 352 353 352 353 353 353 352 352 352 353 353 354 354 353 351 353 354 354 354 356 357 357 356 355 355 355 356 357 357 356 355 354 352 350 348 349 349 347 348 349 349 348 348 348 350 352 354 354 353 353 352 351 350 349 349 349 350 352 351 350 350 350 349 347 348 350 350 349 348 347 344 338 334 329 321 319 316 311 317
350 350 350 349 349 350 352 353 353 352 352 351 352 352 352 352 353 353 353 352 351 353 355 354 354 355 356 356 356 356 356 356 357 357 357 356 356 355 353 352 350 350 349 348 348 348 348 348 347 348 350 352 354 355 355 355 355 354 352 350 349 349 351 353 352 352 351 349 348 348 349 350 349 349 348 346 344 339 335 330 319 311 307 305 313
351 351 351 351 351 351 352 353 353 353 352 351 352 352 352 351 352 352 352 352 352 354 355 354 354 355 355 355 355 355 355 356 357 357 357 356 355 355 354 353 352 351 349 348 348 348 348 348 348 349 350 352 353 355 356 357 356 355 353 351 349 349 351 354 352 352 353 351 348 348 349 350 349 349 347 345 344 339 336 329 316 307 306 305 310
351 352 352 352 352 353 353 353 352 352 352 352 351 351 351 352 353 352 353 353 354 355 354 354 354 354 354 355 354 355 355 355 355 355 355 355 353 353 354 353 353 351 349 348 348 348 348 348 349 350 350 351 353 355 356 356 356 356 353 351 349 349 352 354 353 353 354 353 350 349 350 349 349 349 346 344 343 340 336 329 315 307 307 306 308
351 352 352 352 352 352 352 352 352 352 352 351 351 351 350 351 352 353 354 354 354 354 354 354 354 354 354 355 355 355 356 355 354 353 353 352 352 351 352 353 352 350 349 348 348 348 349 349 350 351 351 352 353 354 355 355 355 354 352 350 349 349 351 354 355 355 355 354 351 349 350 350 350 349 346 344 344 341 337 331 318 310 308 306 308
351 352 352 352 352 352 352 352 352 351 351 351 351 350 351 352 353 353 353 353 353 353 353 353 352 353 353 354 354 355 356 356 354 353 352 352 353 352 351 352 351 350 348 348 347 348 350 352 352 353 353 353 354 354 354 354 353 352 351 348 347 348 350 353 356 356 356 354 352 351 351 350 348 348 346 345 345 343 339 332 320 312 309 306 307
351 351 351 351 351 351 351 351 352 351 351 351 350 350 351 352 353 353 353 352 352 352 352 352 352 352 352 353 354 354 354 355 354 353 353 353 353 352 352 351 351 350 349 348 347 348 351 353 354 354 354 353 353 353 353 352 352 352 350 347 347 348 350 352 353 354 354 353 353 352 352 350 348 348 346 345 345 344 341 332 321 315 310 307 308
351 350 351 351 351 350 351 351 351 351 351 351 351 350 350 351 351 352 352 351 351 351 351 352 351 351 352 353 354 353 353 353 353 353 353 353 352 352 352 352 351 351 349 348 348 348 350 352 353 353 352 352 352 352 352 353 353 352 349 347 348 348 349 350 350 350 350 350 351 351 351 350 349 347 346 345 343 343 341 334 324 317 311 308 311
351 350 349 350 350 349 349 350 350 350 350 350 350 350 349 349 349 350 350 351 351 351 351 351 351 351 352 353 353 353 353 353 354 354 353 352 352 352 352 352 351 350 349 348 348 349 349 351 352 352 351 351 351 351 351 352 352 352 350 349 350 349 349 349 348 348 349 349 350 350 349 348 348 346 344 344 342 341 339 335 328 320 312 311 314
350 350 349 350 350 349 349 349 349 349 349 349 349 349 349 348 347 348 349 350 350 350 351 351 351 352 352 352 352 352 353 354 354 354 354 353 354 354 355 355 354 352 350 349 349 349 350 351 351 351 351 350 350 350 350 352 353 352 351 351 351 351 350 350 349 349 349 348 349 349 347 347 346 342 338 339 341 341 338 336 332 324 314 313 315
350 350 350 350 350 348 348 348 348 348 348 348 348 348 347 347 347 346 347 349 350 350 351 351 351 351 351 351 351 352 354 353 352 352 353 353 354 356 357 357 356 355 353 352 352 351 350 350 350 350 350 350 351 350 350 352 353 351 349 348 349 349 348 348 348 348 346 345 345 347 344 342 339 335 332 333 337 339 338 335 334 328 317 313 315
350 350 350 351 350 349 348 348 347 347 347 347 347 346 346 346 346 346 347 349 350 349 350 351 351 351 351 351 352 353 354 354 353 352 353 353 354 355 356 357 356 356 355 354 354 352 351 351 351 351 351 351 351 351 350 352 352 350 347 346 347 347 344 343 343 343 342 340 341 343 339 333 331 332 333 334 335 337 337 333 333 330 322 316 315
350 351 351 350 349 348 348 347 347 347 346 346 346 345 345 345 346 347 347 349 350 350 350 351 350 350 351 351 350 352 353 354 354 354 354 353 353 353 354 355 355 355 355 355 354 352 351 350 350 351 350 349 349 348 348 348 347 346 345 346 346 344 343 342 340 338 337 335 336 338 332 328 329 331 333 334 335 337 335 331 330 330 326 321 318
350 351 351 350 349 348 348 347 348 348 347 346 346 345 345 346 347 348 349 351 353 352 350 349 349 350 351 350 350 351 353 354 353 353 353 352 352 351 351 352 353 354 355 354 352 352 350 349 348 346 345 345 346 345 345 344 342 342 343 344 343 339 339 338 333 329 329 329 332 334 328 324 328 329 327 328 330 332 332 330 329 330 327 323 321
351 351 350 350 349 348 347 347 347 348 347 347 346 346 346 346 347 348 349 350 351 352 352 353 353 352 352 351 352 352 353 354 353 352 351 351 351 350 350 352 352 352 351 350 350 350 348 345 344 342 341 340 338 337 338 338 336 335 335 335 335 335 335 332 326 322 323 325 329 330 324 321 324 324 321 322 323 324 325 327 328 328 327 325 323
351 351 350 350 349 348 347 347 346 347 347 347 346 346 346 347 348 349 349 349 350 352 353 355 355 354 353 352 352 353 353 352 351 350 351 351 351 350 351 352 350 346 346 345 345 345 344 342 340 337 335 330 326 323 325 326 325 325 327 329 329 330 332 329 321 318 320 322 325 325 321 319 321 319 318 319 319 319 320 320 321 322 323 324 323
351 350 350 349 349 348 348 347 346 347 347 348 347 347 347 348 348 349 350 350 349 351 353 354 354 353 353 352 353 353 352 351 350 350 351 351 351 351 351 351 346 342 341 339 338 339 339 338 333 327 323 321 318 317 316 316 317 319 322 325 325 328 333 331 322 316 316 317 319 318 316 317 319 317 314 314 314 314 315 315 314 314 316 316 317
349 349 348 348 348 348 348 347 347 348 348 349 348 348 348 349 349 349 349 349 348 350 352 352 351 351 351 352 353 352 352 351 351 351 351 351 350 351 350 349 344 339 336 333 332 331 330 328 324 320 319 319 320 319 317 315 315 315 316 319 322 326 331 330 322 317 316 315 314 314 314 314 316 316 315 314 313 312 313 314 314 314 314 314 314
348 348 348 347 347 347 347 347 347 347 347 347 347 348 349 350 350 350 348 349 350 350 350 350 349 350 351 351 352 352 351 351 350 349 350 350 349 349 348 346 343 339 334 330 328 326 324 323 323 322 321 321 320 319 317 314 313 311 311 313 318 323 326 324 320 319 319 318 315 315 315 314 314 315 315 316 316 314 313 314 315 315 316 315 315
Wind_Speed
9 9 9 9 9 9 9 8 8 6 5 4 2 3 3 3 1 1 2 3 3 3 4 5 6 6 7 7 6 5 3 3 3 3 3 4 5 5 5 3 3 4 3 3 3 2 2 2 2 2 3 4 4 4 3 3 3 3 4 4 5 6 7 7 8 9 10 10 11 12 12 12 12 12 12 12 11 11 11 11 10 10 10 10 10
9 9 9 9 9 8 7 6 5 3 2 3 4 4 3 2 2 3 3 3 2 2 4 5 6 7 7 6 5 4 3 3 2 2 3 4 5 4 5 4 3 3 3 3 3 2 2 2 2 2 3 3 4 4 4 4 4 4 5 6 7 7 8 9 9 10 11 12 13 13 14 14 14 14 14 14 14 13 13 12 12 11 10 10 9
9 9 9 8 7 6 4 3 3 3 4 5 4 3 3 4 4 4 4 3 2 1 3 6 6 5 4 4 4 3 2 2 2 2 3 4 4 4 5 5 4 3 3 3 2 2 2 2 2 2 2 2 2 2 3 3 4 5 6 7 8 9 9 10 11 11 12 13 13 14 14 14 14 14 14 14 14 14 13 13 12 12 11 10 9
9 9 8 7 6 4 3 3 4 5 5 5 5 4 4 4 3 3 3 3 2 1 2 4 4 3 3 3 3 2 1 1 1 1 3 4 4 4 5 5 5 5 4 4 3 2 2 2 3 3 2 1 1 1 1 2 3 4 5 7 8 9 10 11 11 12 12 12 12 12 12 12 12 12 12 12 12 12 12 12 12 11 11 10 9
8 8 7 6 5 4 3 5 6 6 6 6 6 5 3 3 2 3 4 3 2 0 1 3 3 3 3 3 2 2 1 2 1 1 2 3 4 4 4 4 5 5 5 5 4 4 3 3 3 3 2 1 0 0 1 2 3 4 5 7 8 9 9 11 11 12 11 10 10 11 11 11 11 11 10 10 10 10 10 10 10 10 10 10 9
8 7 6 6 4 4 4 5 5 6 6 5 5 5 3 2 3 3 4 3 2 2 2 3 3 3 3 3 2 2 2 3 2 3 3 3 3 3 3 3 3 4 4 4 4 4 4 3 3 2 2 1 1 1 1 2 3 4 5 6 7 8 9 10 11 9 8 8 9 10 10 10 10 9 9 10 10 11 11 11 10 10 10 9 10
8 6 6 5 5 5 4 4 4 5 5 4 5 4 2 2 2 2 3 2 3 4 3 3 3 3 3 3 2 2 2 3 4 4 4 4 4 3 2 2 2 2 3 3 3 3 3 3 3 2 2 1 1 1 1 2 2 3 4 5 6 7 9 10 9 6 6 7 8 9 9 8 8 9 10 11 12 12 12 12 11 11 10 10 9
7 6 5 5 5 4 3 3 4 4 4 4 3 2 1 1 2 2 2 1 2 3 4 4 4 3 3 3 3 2 1 1 2 3 4 4 4 3 2 2 1 1 2 2 2 3 2 2 2 2 2 2 1 1 1 2 2 2 3 4 6 7 9 9 7 4 5 7 8 8 7 7 8 10 11 12 12 13 13 13 12 11 11 11 10
7 5 4 5 5 4 1 3 4 3 4 3 2 1 1 1 2 2 2 2 3 3 4 4 4 4 4 5 5 4 3 1 1 1 1 1 0 1 1 1 1 1 1 1 2 2 2 2 2 2 2 2 2 2 2 2 3 3 3 4 5 7 9 9 6 4 5 7 7 7 5 5 7 10 11 12 13 13 14 13 12 12 12 11 11
6 5 5 5 5 4 0 2 3 3 4 2 1 1 2 3 3 3 4 5 4 4 3 3 4 5 5 6 6 6 5 4 4 4 3 3 3 2 1 1 1 1 1 0 1 2 2 2 2 2 2 2 2 2 3 3 3 4 3 3 4 5 8 9 7 5 6 6 7 5 3 4 5 8 11 12 13 14 14 14 13 13 12 11 11
7 5 5 5 5 4 1 1 1 3 3 2 2 1 2 3 3 3 5 6 5 4 4 3 4 5 6 6 7 7 6 6 6 6 5 5 4 4 3 3 3 3 2 2 3 3 2 3 3 3 3 3 3 3 4 4 5 5 4 3 4 5 6 7 7 6 6 6 6 4 3 3 5 7 10 11 13 14 14 13 13 13 12 11 11
7 5 5 5 5 4 2 1 1 2 2 2 2 2 2 3 3 3 3 6 6 5 4 2 3 3 3 4 5 7 7 7 7 7 7 7 6 6 6 6 6 5 5 5 5 5 5 5 5 5 4 4 5 5 5 5 6 6 5 5 5 5 6 6 7 6 5 5 6 4 4 4 5 7 9 11 13 14 13 13 13 12 12 11 11
8 6 6 6 5 4 3 2 1 1 2 2 2 2 2 2 3 3 2 4 5 5 5 4 3 2 0 1 2 4 5 6 7 7 8 9 9 10 9 9 9 8 7 7 7 7 7 7 7 7 7 6 6 6 6 6 7 7 6 6 5 5 6 6 7 7 4 4 5 4 5 5 6 8 9 11 12 13 13 13 13 12 12 12 11
8 7 6 6 6 5 4 3 1 0 1 1 1 2 2 2 2 2 2 2 3 3 4 3 2 3 1 1 2 3 3 4 4 5 7 8 9 11 11 11 11 9 9 9 9 9 9 9 9 9 10 9 9 8 8 8 7 7 6 6 5 5 6 6 8 7 4 3 3 3 5 6 7 8 9 11 12 12 12 12 13 12 12 12 12
9 8 6 6 6 6 4 4 2 1 1 1 1 2 1 1 2 2 1 1 1 2 2 1 1 3 2 2 2 2 2 3 4 5 6 7 8 10 11 11 11 11 11 12 12 11 11 12 12 12 12 12 11 10 10 9 8 8 7 7 6 5 6 6 7 7 4 2 2 2 4 5 7 8 10 11 12 12 12 12 12 12 12 12 12
10 8 6 6 7 6 6 5 3 2 1 1 1 2 2 1 2 2 2 1 0 1 2 1 0 2 1 1 1 1 1 2 4 4 5 6 6 8 9 9 11 12 13 14 14 14 14 14 14 14 14 13 13 12 11 9 8 8 8 8 7 6 5 5 6 6 3 2 2 2 3 5 7 9 10 11 11 11 12 12 13 13 13 13 12
11 9 6 6 7 7 7 6 5 3 2 1 1 2 2 2 2 2 2 2 1 2 3 3 2 1 2 1 1 1 1 2 4 3 4 5 5 7 7 7 8 10 11 12 13 13 13 13 14 14 14 13 13 12 11 9 8 8 8 8 7 6 6 5 5 5 3 2 2 3 4 5 7 9 10 11 11 11 11 12 13 13 13 13 12
12 10 8 6 7 9 8 7 6 5 3 2 2 2 2 2 2 1 2 2 2 2 3 4 3 3 3 2 1 1 2 1 1 2 3 4 4 5 6 6 7 6 6 7 8 9 10 11 12 13 12 11 11 11 11 9 9 9 9 7 6 7 7 6 6 4 2 3 3 3 4 6 8 9 10 10 11 11 11 12 13 13 13 13 12
13 11 9 7 8 9 9 8 6 5 4 3 3 3 2 1 1 0 1 2 2 3 3 3 4 4 4 4 3 3 3 2 1 1 2 2 3 4 5 6 7 6 6 6 7 8 10 11 11 10 9 8 9 10 11 10 10 10 9 7 7 7 7 7 7 5 3 3 3 2 4 6 8 9 10 11 11 11 12 13 13 14 14 14 13
14 13 11 8 8 10 9 8 7 6 4 4 4 4 2 1 0 1 1 2 3 3 4 4 5 4 4 5 4 4 4 3 3 2 0 0 3 4 5 6 7 7 8 8 9 10 11 11 10 9 8 8 8 9 10 11 11 10 9 8 7 8 8 7 8 6 4 3 2 2 4 6 8 9 10 11 11 12 12 13 13 14 13 14 14
14 14 13 11 10 10 10 9 9 7 5 5 5 5 3 2 1 1 1 2 3 3 3 3 4 4 4 5 4 4 4 3 3 3 2 1 2 2 3 5 6 8 9 9 10 10 11 10 9 9 8 9 9 9 9 10 10 10 9 9 9 9 8 8 8 7 4 2 1 2 5 6 8 10 10 10 11 12 12 13 13 13 13 13 13
15 15 15 13 12 11 11 11 10 9 7 6 6 6 4 3 3 2 2 2 2 3 2 1 2 3 3 3 3 2 2 1 2 2 2 2 2 2 4 4 4 7 8 8 9 10 10 11 10 9 9 9 9 9 9 9 9 9 10 10 10 9 9 8 7 6 3 1 1 2 5 6 8 9 9 10 10 11 12 12 13 13 13 13 13
14 15 16 16 14 13 12 11 11 10 9 8 7 7 5 3 3 4 3 3 3 2 2 0 1 2 2 2 2 1 1 1 2 2 3 2 2 3 5 5 6 8 7 7 8 9 10 10 10 9 8 7 8 8 9 8 8 9 9 9 8 8 7 7 6 5 3 1 1 2 4 6 7 8 9 10 10 11 12 12 12 13 13 13 13
14 15 17 17 16 14 13 12 11 11 10 9 8 7 6 5 4 5 4 4 5 4 3 2 1 2 1 1 2 2 2 3 3 3 4 4 3 3 5 5 5 6 7 8 9 8 8 8 9 8 7 7 6 7 8 8 7 8 8 8 7 6 6 6 6 5 3 2 1 2 4 5 7 7 8 9 10 11 11 11 12 12 13 13 13
15 16 17 18 17 15 14 12 11 11 11 9 9 8 7 6 5 5 6 6 6 6 5 4 3 3 3 2 2 2 3 4 4 4 4 5 4 4 4 4 4 6 8 8 7 7 7 6 6 6 7 6 4 5 6 6 7 7 7 8 8 7 7 7 6 5 4 3 2 2 4 5 6 7 8 9 10 10 10 10 11 12 12 13 13
17 17 17 17 16 15 14 13 13 12 11 10 10 9 8 7 6 6 7 7 7 8 8 7 6 5 4 4 3 3 3 4 4 4 5 5 5 5 4 4 5 6 6 5 7 7 6 5 5 5 5 3 2 3 4 5 6 6 5 5 6 7 6 7 7 6 5 5 4 3 4 5 6 7 7 8 9 10 10 10 11 12 12 12 12
18 18 17 16 15 14 13 13 14 14 12 11 10 10 9 8 7 7 8 8 8 8 8 8 8 7 6 6 5 5 5 5 5 5 6 6 7 7 5 3 3 4 3 4 6 7 6 6 5 3 1 1 1 3 4 4 4 3 3 4 5 6 6 7 8 8 7 6 6 5 4 5 5 6 7 8 9 9 9 10 11 12 12 12 11
18 19 18 16 15 14 13 13 14 15 14 13 11 10 10 9 8 8 9 9 9 8 8 8 8 7 7 7 7 6 6 6 6 6 7 7 8 8 6 5 3 2 2 2 4 4 5 5 3 0 1 2 3 4 5 4 4 3 4 4 5 5 6 7 8 9 9 8 7 6 4 4 5 5 6 7 8 9 9 11 12 12 12 11 11
17 18 17 16 16 15 14 13 14 15 14 14 13 11 10 10 9 9 9 9 9 8 8 8 8 7 6 7 7 7 7 7 6 6 7 8 8 8 7 7 5 3 1 1 2 3 5 5 3 1 2 2 5 6 5 5 5 5 5 5 5 5 6 7 8 9 10 9 8 6 4 3 4 4 5 6 8 8 9 10 12 12 12 11 10
18 18 17 16 17 17 16 14 14 14 14 14 13 12 11 11 10 10 10 9 10 9 9 9 8 7 7 7 7 7 8 7 7 6 7 8 9 9 8 7 7 6 4 3 3 5 6 6 4 3 4 6 7 7 6 5 5 6 6 6 6 6 6 7 8 9 10 9 8 6 4 3 3 3 4 5 6 6 7 10 12 12 11 10 10
19 18 18 17 17 18 17 16 15 15 14 14 13 12 12 12 12 12 11 10 11 11 11 10 9 8 8 8 8 8 8 8 7 7 8 8 9 10 9 9 9 9 9 5 2 5 7 7 7 8 8 8 7 7 6 5 5 6 7 7 7 6 6 6 7 8 8 8 7 6 4 3 3 3 3 5 5 5 6 9 11 11 10 9 8
19 19 19 18 18 18 18 17 16 16 15 14 14 14 13 14 14 13 13 12 13 13 12 10 9 9 9 10 11 11 10 10 9 9 9 10 10 11 11 12 11 10 10 8 5 8 13 13 12 12 10 9 8 8 7 6 7 7 8 9 8 7 6 6 6 6 6 6 6 6 5 4 3 3 3 4 3 3 5 9 10 10 9 8 7
20 21 21 20 19 19 18 18 17 17 16 15 15 15 15 15 15 15 15 14 14 13 11 10 9 9 10 11 12 12 12 12 12 12 12 12 12 13 13 13 13 12 11 10 9 10 15 15 13 12 11 10 9 8 8 9 9 9 9 9 8 7 7 7 6 5 4 4 5 5 5 4 4 4 3 3 2 2 4 8 9 9 8 7 6
20 20 21 21 20 20 19 18 17 17 16 16 16 16 17 17 17 16 16 16 15 14 13 12 11 11 11 12 12 13 13 14 14 14 14 14 14 15 15 15 15 14 13 12 11 10 13 16 15 13 11 9 9 9 10 10 11 11 10 9 9 7 7 7 6 5 4 4 5 6 5 5 5 4 3 3 3 2 3 7 8 8 8 7 6
21 21 21 21 21 21 21 20 19 18 17 17 17 17 18 17 17 17 16 16 15 15 14 13 12 12 13 14 14 14 14 15 16 16 15 15 15 16 17 16 17 16 14 12 12 11 12 15 15 13 10 9 10 10 10 11 11 11 10 9 8 7 6 7 6 5 4 4 5 6 6 6 6 5 4 4 4 2 3 6 7 7 8 7 5
22 22 22 21 21 21 21 21 21 20 20 19 19 19 19 19 18 17 17 16 16 16 15 14 13 13 14 15 15 15 15 16 17 17 16 16 16 16 17 17 17 16 14 12 12 12 12 13 15 14 12 12 11 10 10 11 11 10 10 9 8 7 6 6 6 6 5 5 6 7 7 8 8 6 5 5 4 3 4 6 6 6 7 6 5
22 22 22 21 21 20 21 21 21 21 21 21 21 21 21 20 20 19 18 18 17 16 16 15 15 14 15 16 16 16 16 16 17 17 17 17 17 17 17 17 17 16 14 13 13 13 13 14 16 16 14 13 12 11 10 11 10 9 9 9 8 7 6 6 6 6 6 6 7 8 8 9 9 7 7 8 6 4 3 3 4 5 7 6 5
22 21 21 21 20 20 20 20 21 21 21 22 23 22 22 21 21 20 20 19 18 18 17 17 16 16 17 17 17 17 17 17 17 17 17 17 17 17 17 17 17 16 15 15 13 12 12 13 14 14 14 14 12 11 10 10 9 9 8 7 7 6 6 5 5 5 6 6 7 8 9 9 8 7 8 10 9 8 6 2 2 4 6 6 5
22 22 22 21 21 20 20 21 21 21 22 22 23 22 22 22 21 21 21 20 20 19 19 19 19 19 19 19 18 17 16 16 17 17 17 17 17 17 17 17 17 17 16 16 13 10 10 11 12 12 13 13 12 10 9 9 9 8 7 6 5 4 4 4 4 5 5 6 6 7 9 9 8 7 8 11 11 9 8 4 2 3 4 5 5
24 23 23 23 22 21 22 22 22 22 23 23 23 23 23 23 22 22 21 21 22 22 22 21 20 20 19 19 18 16 15 15 16 16 15 15 16 17 16 16 17 17 16 15 13 11 11 11 11 11 12 13 12 11 10 9 8 6 5 4 4 3 3 3 4 5 5 5 5 6 7 8 8 8 9 10 11 11 10 5 3 2 3 5 5
26 26 25 24 23 23 23 24 24 24 25 25 24 24 24 24 23 22 22 22 23 23 22 20 19 19 20 20 19 17 16 15 15 14 14 15 15 16 16 15 16 16 15 14 12 10 10 10 10 9 9 11 11 10 9 9 7 5 4 3 3 3 3 3 4 4 4 4 5 5 5 6 6 7 8 8 9 10 10 6 3 2 3 5 5
27 26 26 25 25 24 24 25 25 26 27 26 26 25 25 25 24 23 23 23 23 22 20 18 18 19 19 20 19 18 16 15 15 14 14 14 13 14 14 13 13 14 14 14 12 10 8 8 9 7 7 10 12 10 9 8 7 5 4 2 2 3 3 3 3 3 4 5 5 5 5 5 5 7 7 7 5 6 7 5 4 3 3 4 4
27 26 26 26 26 26 26 26 26 27 28 27 27 26 26 26 25 25 25 24 23 22 20 19 19 19 19 20 20 18 16 16 15 14 14 13 12 14 15 13 12 12 13 13 12 10 9 9 9 7 7 10 13 12 9 8 6 6 5 4 3 3 2 2 2 3 5 6 6 4 4 5 6 7 6 5 3 2 3 2 5 5 3 3 3
27 27 26 27 27 27 26 26 27 28 29 28 27 27 27 27 27 27 26 24 24 23 22 22 21 20 19 19 18 17 16 16 15 14 14 13 12 13 15 14 13 13 13 13 12 12 12 11 10 9 8 10 12 12 10 7 5 5 4 3 3 3 3 3 3 4 5 7 6 3 3 5 6 7 7 6 4 3 3 3 6 7 6 4 2
27 27 27 27 27 27 26 26 28 29 29 30 29 28 28 27 27 27 25 24 23 21 19 17 16 16 17 17 18 18 17 15 14 14 15 15 14 14 14 15 15 14 14 14 13 14 14 13 11 10 9 9 10 10 9 7 5 4 4 4 4 5 5 4 3 3 4 6 5 1 4 7 7 8 10 10 6 4 4 4 6 8 7 5 2
28 28 28 27 27 27 27 27 28 29 30 31 30 29 28 26 26 24 22 21 19 16 16 16 17 19 21 21 20 18 15 13 11 13 15 15 15 14 13 14 15 14 13 13 14 15 14 13 12 11 10 9 9 8 8 6 4 5 6 5 5 4 2 1 1 2 3 5 3 2 6 9 8 9 14 13 10 8 7 4 5 8 7 4 5
27 27 27 27 26 26 26 27 28 29 30 30 29 28 26 25 25 24 22 22 19 16 16 19 21 20 19 19 18 16 15 13 10 11 13 13 13 13 12 13 13 12 10 11 13 14 12 10 9 7 5 4 4 3 3 2 2 2 3 3 3 2 1 4 5 5 5 6 2 3 6 10 10 13 16 16 13 13 12 9 4 2 4 5 6
24 24 24 25 25 25 25 24 23 23 25 27 27 27 26 24 24 23 22 22 20 15 14 17 18 14 12 13 15 14 13 11 9 10 11 12 11 10 10 11 9 7 7 9 9 8 6 3 1 2 4 7 9 10 9 8 7 5 2 2 2 2 2 5 8 10 10 8 6 7 9 10 12 14 15 13 12 13 12 11 9 5 2 3 4
23 22 21 22 22 22 23 22 20 18 19 20 21 23 23 24 24 23 22 21 19 15 13 14 15 13 11 11 12 11 10 9 8 8 10 10 8 8 9 8 5 4 4 4 3 3 2 5 9 11 13 13 14 14 13 13 13 11 9 8 8 4 2 4 7 12 14 12 9 10 11 9 8 11 14 13 13 14 13 12 11 9 6 5 4
16 14 13 12 12 12 13 15 16 15 15 15 16 18 19 21 21 19 19 20 18 16 14 14 13 13 12 11 10 8 7 6 6 7 8 8 7 8 9 7 3 3 3 6 8 9 11 13 15 16 16 14 12 11 13 15 15 16 17 16 13 8 4 5 8 11 16 17 12 9 10 10 7 8 9 10 13 15 15 13 12 11 10 8 7
15 15 16 14 12 10 11 12 14 15 15 14 15 17 18 18 17 16 17 18 18 17 15 13 12 10 8 7 7 6 5 4 5 5 6 6 6 6 7 4 0 2 5 11 14 15 16 16 15 15 15 14 14 14 16 17 17 18 19 18 14 10 8 8 9 9 10 13 13 9 9 12 11 8 5 4 6 10 12 13 13 13 12 11 9
Wind_Direction
145 142 139 133 129 126 124 125 125 122 115 97 50 13 2 2 36 149 177 200 212 222 251 261 263 270 280 290 294 287 263 251 262 262 230 200 197 190 187 197 195 188 169 146 141 128 103 89 83 67 82 85 75 73 63 52 35 14 6 1 358 359 358 354 351 349 346 344 341 339 336 333 330 325 322 319 315 312 309 309 310 310 311 311 311
148 142 139 135 133 134 132 135 131 112 55 17 354 355 9 54 108 126 138 140 144 193 233 245 251 262 271 278 272 255 242 248 271 257 215 189 187 183 179 185 186 171 158 150 140 118 101 99 91 73 77 81 80 74 62 49 33 21 13 7 5 3 1 358 354 350 346 342 339 335 332 330 327 324 322 318 313 310 309 309 308 307 308 309 310
148 140 138 137 137 137 132 127 92 32 3 7 16 36 76 102 107 114 115 96 77 135 214 231 240 254 258 252 238 225 223 249 282 244 201 181 178 178 177 183 194 187 177 169 158 141 126 121 110 96 88 82 79 67 54 40 26 17 11 9 6 2 359 355 350 346 343 339 336 333 332 330 328 325 322 318 315 314 313 312 308 306 306 307 307
142 136 137 137 138 133 113 75 44 28 27 42 59 67 79 83 79 80 56 31 34 85 180 211 216 217 212 203 204 197 195 316 328 226 191 173 169 176 179 183 193 201 203 202 196 182 163 142 129 124 121 108 93 60 38 19 13 10 10 9 5 360 356 352 348 344 340 338 338 338 337 334 330 327 324 323 323 323 320 317 313 308 305 304 303
137 135 138 138 136 122 84 53 40 42 56 60 57 52 53 45 26 23 7 351 332 244 181 202 202 191 180 175 177 155 82 36 48 168 175 167 169 177 187 191 195 202 206 206 205 196 181 161 146 143 145 140 162 324 338 351 357 4 8 7 5 2 359 355 349 343 338 341 345 342 339 336 333 332 336 341 343 345 343 338 330 322 314 307 303
139 140 142 140 134 111 74 52 46 49 55 51 45 37 23 3 354 351 333 314 271 245 227 211 211 208 193 180 174 142 81 62 89 129 147 158 165 173 185 201 208 210 212 208 204 195 181 168 159 158 158 163 199 290 317 330 345 360 9 8 7 7 4 357 349 344 344 348 347 342 342 341 341 350 3 9 9 6 2 356 349 340 330 318 308
147 149 146 142 132 111 81 51 42 44 41 34 38 29 355 338 332 330 317 284 232 235 237 223 223 224 214 208 202 166 112 89 97 116 124 130 131 134 150 174 201 208 216 210 201 192 182 170 164 167 172 181 206 257 295 317 333 352 6 11 13 11 8 1 353 354 358 355 350 353 360 2 8 19 23 20 15 8 3 358 352 346 341 333 322
157 155 146 146 137 123 94 38 27 30 25 23 37 36 8 336 323 333 332 244 196 212 223 229 235 241 244 242 237 226 175 118 99 117 127 125 118 108 107 110 128 168 195 193 183 178 176 173 171 179 184 195 214 239 273 297 314 340 2 15 19 14 13 7 360 6 6 360 1 9 19 28 36 33 26 20 14 8 3 1 357 351 346 341 337
164 159 153 155 151 142 105 19 18 17 16 20 42 74 79 34 10 29 46 86 124 159 187 223 242 251 257 258 258 256 255 246 240 228 192 175 97 57 65 59 54 65 107 147 157 160 170 180 185 193 196 208 232 252 274 288 302 323 350 10 16 16 16 10 2 5 3 5 9 15 28 43 43 31 24 19 13 8 5 3 1 355 350 345 343
169 169 168 167 166 162 221 351 13 14 17 23 35 69 63 39 43 61 74 93 111 138 165 209 235 247 251 254 261 260 262 265 267 276 290 306 317 343 354 323 321 324 330 168 188 178 184 199 210 221 225 232 249 266 277 288 303 312 329 353 1 5 10 7 358 353 355 3 7 11 28 42 36 25 21 16 11 8 6 5 2 357 353 349 346
176 182 182 175 176 181 249 313 5 8 14 28 26 40 49 45 56 66 87 107 114 132 156 193 217 233 245 251 257 257 256 260 268 279 289 301 312 318 317 310 305 295 282 277 275 259 240 235 242 249 251 252 253 263 276 289 304 308 310 324 337 343 354 358 351 344 347 357 360 359 10 22 22 20 17 13 11 8 6 6 4 0 356 354 353
184 190 189 181 183 198 235 251 341 352 13 30 20 22 35 44 54 57 90 115 117 124 135 157 184 201 237 250 255 259 260 262 269 278 287 294 299 299 300 300 297 292 285 282 282 282 280 273 271 271 266 264 261 260 270 284 297 302 299 301 317 332 341 349 347 342 344 353 354 349 354 8 12 14 15 12 10 8 7 6 5 3 0 359 0
188 193 192 188 193 209 225 210 252 323 6 18 3 10 22 20 28 46 77 115 120 120 127 143 148 123 87 302 296 278 265 267 271 273 281 288 290 289 288 289 288 289 287 285 283 284 285 283 281 280 277 272 270 267 270 279 290 296 296 297 307 330 338 344 346 344 344 350 352 348 350 357 2 7 12 11 9 8 7 5 4 4 1 1 2
192 196 193 194 204 213 215 204 203 291 17 27 12 360 4 360 6 24 44 104 123 130 138 150 144 120 99 2 360 332 282 266 270 277 286 288 291 291 286 282 281 280 279 279 281 282 284 285 282 281 280 277 275 274 275 279 287 291 294 295 298 321 335 338 344 345 344 349 357 357 350 350 354 2 7 8 8 9 8 5 3 3 360 359 2
196 198 197 205 214 214 208 201 195 168 63 50 28 355 342 350 358 1 359 73 141 168 175 163 133 134 96 28 6 353 320 284 281 286 295 295 298 302 292 281 276 274 272 271 274 279 286 288 287 284 280 277 277 277 279 282 286 287 287 285 282 300 323 329 339 343 342 345 9 11 352 348 351 357 2 5 10 10 8 4 2 1 360 356 357
200 199 204 219 218 212 208 203 201 193 164 37 13 353 348 340 341 354 352 333 217 224 232 267 125 155 106 58 40 18 333 313 316 294 290 296 300 309 306 289 280 274 272 272 276 281 285 285 287 289 285 276 271 273 278 280 279 278 275 272 272 289 305 314 332 339 337 323 342 360 353 354 355 356 360 6 11 10 6 3 2 3 2 359 355
202 201 208 225 218 210 209 206 214 222 229 322 329 328 347 342 324 340 352 340 292 266 260 263 277 224 172 142 51 15 252 301 334 305 283 286 288 305 314 306 294 282 276 277 278 280 282 282 285 291 290 276 264 265 269 270 266 264 262 262 271 287 293 299 321 330 323 295 313 343 357 3 2 359 2 6 8 6 4 3 4 4 4 3 360
205 204 210 224 212 205 209 212 223 233 239 282 299 308 336 349 330 329 4 353 300 274 270 260 262 249 232 233 276 310 254 260 324 315 304 289 284 305 313 316 314 303 291 285 282 281 283 285 289 293 293 280 265 261 260 260 259 256 253 258 273 288 291 295 306 311 300 283 304 343 4 9 9 5 4 4 3 4 4 3 2 3 3 3 3
207 206 211 218 205 199 210 221 229 234 241 271 282 289 314 349 351 288 25 6 324 290 281 256 244 243 246 252 264 284 288 263 221 286 328 298 299 317 311 313 319 318 313 301 292 289 287 289 292 295 294 284 274 266 259 257 257 256 254 261 279 294 297 298 300 296 279 278 301 1 13 10 13 11 5 0 360 1 3 2 2 2 2 2 3
210 209 209 210 203 202 215 226 227 228 243 267 269 267 282 309 280 228 300 348 337 314 293 256 238 240 244 249 265 286 296 288 256 247 222 265 304 315 308 306 303 299 299 292 288 286 285 287 290 294 293 288 284 275 265 260 260 258 257 264 279 293 297 301 300 287 267 277 302 22 18 12 16 13 5 360 358 359 2 4 4 3 3 4 5
212 211 208 206 205 207 217 224 223 226 243 262 255 249 252 235 224 252 287 326 337 334 316 261 233 245 257 252 258 278 297 303 272 243 198 210 282 294 308 311 300 293 287 278 278 278 277 279 281 286 292 290 287 279 268 263 261 258 258 269 279 287 290 298 300 284 265 275 310 27 22 16 15 10 6 2 359 359 2 3 4 4 4 5 7
211 211 210 206 206 212 220 223 224 229 242 254 245 237 241 228 223 247 266 292 321 347 356 254 216 243 262 254 254 272 289 284 248 237 219 224 241 263 288 297 293 300 297 278 275 277 275 275 275 279 285 288 286 278 269 262 259 257 260 270 278 281 285 293 296 285 267 264 328 23 23 16 10 5 6 6 3 2 3 4 4 5 6 7 8
212 214 213 209 209 216 224 228 230 234 242 249 241 235 242 237 228 238 252 268 286 315 347 303 230 247 254 263 277 299 287 263 263 263 249 242 242 273 291 293 282 291 306 304 296 294 289 284 281 281 286 291 288 279 273 268 263 258 259 266 271 272 276 283 290 284 266 252 316 12 18 11 4 1 5 8 7 6 6 5 6 8 9 9 9
213 216 215 212 212 219 227 231 233 234 238 242 237 234 240 241 239 243 249 261 269 276 290 293 273 267 279 296 295 309 311 297 285 275 270 268 257 267 291 301 285 285 303 310 307 305 301 295 289 287 294 302 297 286 280 273 265 260 260 261 259 258 263 270 278 277 263 256 300 352 4 4 359 358 3 9 10 10 9 8 9 9 10 10 9
214 217 216 212 213 220 226 228 230 231 232 234 232 231 235 241 247 247 250 259 266 269 273 276 276 274 290 304 296 305 313 303 283 272 276 274 260 256 275 279 269 283 299 304 305 307 302 298 297 294 299 304 303 299 291 272 261 267 270 262 254 253 256 256 262 270 266 261 283 324 345 353 354 354 1 8 11 12 11 8 8 8 9 9 9
216 215 213 211 215 223 226 227 230 231 231 232 232 231 232 240 246 249 252 258 262 264 266 269 270 270 276 285 286 294 305 303 288 277 277 271 261 261 274 281 277 284 294 295 298 303 302 305 310 304 303 302 297 317 312 278 267 278 284 264 253 256 257 251 253 263 268 266 271 292 324 341 347 351 359 6 11 13 11 8 6 6 8 8 8
219 214 211 212 218 224 226 229 231 233 237 236 235 234 233 238 246 253 257 258 258 257 258 263 264 264 263 266 273 281 291 295 287 281 279 275 277 281 279 283 295 299 300 295 294 297 300 310 318 318 355 54 8 336 324 296 276 280 290 269 255 260 263 258 259 262 266 267 268 275 303 330 340 348 357 5 10 12 10 5 5 7 8 8 10
222 217 214 217 222 224 229 233 232 235 239 239 237 235 235 241 249 256 258 256 253 251 253 257 259 261 262 264 270 277 285 290 286 283 282 279 283 287 277 263 264 299 319 304 292 297 302 308 319 281 143 70 5 337 321 300 275 274 294 282 260 260 262 260 262 263 263 264 266 270 289 317 333 344 354 3 8 10 8 5 6 7 8 9 12
227 221 220 222 225 227 232 237 235 234 235 236 236 237 239 246 251 255 257 252 248 248 249 253 256 263 268 270 275 280 288 293 292 285 283 282 282 284 281 270 254 244 276 305 280 279 288 296 301 249 232 305 329 324 315 302 288 291 302 296 280 270 264 260 261 260 258 258 260 265 279 302 321 337 353 2 7 8 7 6 6 8 10 11 13
231 227 224 227 230 232 236 239 236 232 231 233 235 237 242 248 250 253 254 250 247 247 250 256 260 264 269 277 285 292 297 297 295 291 286 286 284 281 282 276 259 243 238 255 282 276 278 293 303 285 286 306 317 318 312 306 302 302 304 305 302 289 278 278 271 260 254 251 253 261 274 289 306 326 348 360 5 7 8 8 7 10 14 14 16
234 229 228 232 235 236 239 243 238 233 232 233 235 240 245 248 250 253 255 254 254 254 256 262 265 267 272 281 289 297 299 295 295 295 288 285 284 282 279 274 265 255 249 242 250 277 278 292 303 301 306 310 310 311 307 301 304 306 302 305 309 301 292 295 287 267 253 247 250 261 270 270 285 308 340 357 2 5 9 9 8 11 17 18 18
234 232 234 236 237 239 242 244 241 237 236 237 241 245 250 253 255 258 262 262 261 261 262 266 269 274 279 281 283 286 288 286 284 282 280 280 279 278 277 272 265 261 258 244 231 269 282 291 300 304 313 316 308 305 305 305 310 314 311 310 311 305 292 291 289 276 256 246 248 257 261 257 266 288 324 350 355 2 9 9 9 14 19 19 18
236 236 238 239 241 243 243 244 242 240 242 246 250 252 255 259 260 263 267 266 264 264 266 268 269 274 280 281 280 280 281 280 279 279 279 280 280 280 279 274 268 266 265 252 239 264 285 293 301 307 315 321 315 308 305 307 313 317 316 312 309 302 288 281 279 275 264 254 251 252 252 250 259 279 307 332 331 338 4 7 10 16 17 15 16
239 239 241 241 243 245 245 246 247 247 251 255 257 258 259 261 262 264 266 266 263 263 264 266 268 273 280 284 284 284 285 285 286 287 287 284 285 286 284 279 276 274 271 260 248 256 279 290 299 306 314 325 327 319 312 310 314 316 315 310 306 300 288 278 271 270 271 264 253 250 249 248 253 271 292 301 290 287 353 7 12 16 15 12 15
241 241 243 244 246 248 248 251 252 254 258 259 259 259 259 260 260 261 262 262 261 261 262 265 268 272 277 282 286 290 291 291 291 290 289 289 289 290 289 284 281 279 275 265 256 255 269 286 296 300 306 317 323 320 314 311 312 315 315 312 310 305 291 274 262 260 269 269 255 247 242 238 242 255 271 279 276 272 336 6 16 16 12 13 17
242 243 245 246 249 252 252 254 256 257 258 259 259 259 258 259 260 259 260 261 260 260 262 264 266 270 274 278 283 288 290 293 294 291 289 290 291 291 290 288 284 281 277 273 269 265 266 277 287 293 297 305 312 315 311 309 308 309 310 311 313 310 295 274 257 255 265 267 250 237 233 236 246 253 245 250 267 285 330 356 15 19 15 17 22
243 244 246 248 250 253 254 254 256 257 258 258 260 260 261 261 261 261 263 265 265 265 266 267 268 272 276 279 283 286 289 293 297 297 294 294 295 293 291 292 290 285 281 283 282 274 267 270 279 288 294 298 304 307 305 305 305 303 304 307 309 304 294 281 268 266 272 269 253 245 248 251 255 255 238 237 241 231 258 335 11 18 17 22 28
243 245 247 249 252 253 254 254 256 259 259 259 260 262 263 263 262 262 263 266 267 267 269 271 273 277 280 283 287 289 289 290 295 297 297 297 298 296 295 296 295 290 287 287 284 274 267 267 274 284 290 296 302 302 301 303 304 305 305 305 304 298 293 290 285 285 285 281 271 264 268 265 254 250 248 248 248 238 228 219 53 29 24 27 34
244 248 249 250 253 255 256 257 259 261 262 261 262 262 262 262 261 261 262 264 265 267 270 272 274 276 279 282 287 290 289 290 292 294 296 297 298 297 298 298 296 295 292 289 284 275 267 267 271 277 286 295 301 298 299 300 300 303 307 309 312 304 297 300 300 302 300 298 296 283 280 280 269 266 271 269 270 269 252 214 119 54 41 48 51
245 250 251 251 253 256 257 258 260 262 263 262 261 261 262 261 261 261 262 264 266 269 272 271 270 270 273 277 282 285 288 290 290 292 295 296 297 297 298 299 298 298 296 293 287 278 271 267 269 275 283 290 296 294 293 291 288 291 297 306 321 318 313 325 323 313 311 315 316 304 299 301 294 290 291 285 284 278 261 225 146 84 63 72 70
248 251 251 251 252 254 255 256 258 260 262 263 262 261 261 261 262 263 264 266 270 272 272 268 264 263 267 273 278 283 287 288 288 291 294 295 296 297 299 300 298 295 292 290 283 273 269 265 266 276 280 283 289 288 284 282 279 274 271 288 314 312 312 330 329 317 319 329 332 332 335 331 319 310 308 303 296 284 273 251 179 124 83 88 84
249 250 250 251 252 253 253 254 256 258 260 262 262 261 260 261 263 265 267 268 268 267 265 263 260 261 267 275 281 285 285 282 285 291 294 295 295 293 293 294 294 293 289 284 279 273 267 265 270 277 276 283 290 289 283 280 272 261 260 279 315 311 310 326 335 333 339 341 339 346 352 345 331 322 321 324 316 295 289 269 206 152 103 108 101
247 248 250 252 253 254 254 255 257 258 260 261 261 261 261 261 262 265 267 266 263 261 260 260 260 264 270 277 281 282 281 284 289 292 291 289 284 280 282 282 283 288 287 283 283 279 268 266 274 275 274 285 292 294 292 283 264 257 266 274 292 312 334 360 349 330 333 334 334 343 352 343 339 338 339 348 355 349 341 260 204 171 133 136 123
245 246 248 252 254 255 257 258 260 262 263 264 264 264 263 261 262 263 263 261 259 258 259 259 262 267 273 279 281 281 286 293 296 295 293 289 280 275 278 279 278 278 278 276 277 279 276 273 274 274 278 285 293 300 296 271 243 252 268 270 281 308 333 347 336 319 321 329 331 339 11 3 1 11 21 29 38 54 70 142 186 185 172 163 156
243 245 248 251 254 255 257 260 262 265 266 266 267 267 267 264 261 260 259 258 258 261 265 269 274 275 275 276 277 281 290 297 297 296 295 293 288 282 278 277 278 278 278 276 275 279 282 280 276 279 285 290 301 305 288 253 230 254 268 276 294 303 305 310 323 326 331 339 339 13 54 30 27 41 46 45 45 56 81 132 179 193 189 176 210
241 243 246 250 254 256 259 261 264 267 267 267 267 267 266 263 257 252 250 253 260 271 279 281 278 273 270 268 268 273 281 285 290 298 300 296 292 291 288 284 283 280 277 278 279 279 282 279 275 281 292 299 300 292 276 261 262 280 282 288 304 315 304 244 89 48 12 360 354 99 63 43 48 61 60 59 57 59 64 85 171 194 199 204 235
241 242 245 249 252 256 259 262 264 265 265 264 263 263 261 255 249 246 246 252 260 267 272 273 272 270 269 266 263 267 272 275 284 300 306 302 295 297 300 295 291 287 283 285 286 287 290 285 272 272 289 313 331 326 309 317 360 354 320 309 317 330 142 126 99 66 38 23 33 119 73 59 73 80 74 71 65 61 57 48 53 182 216 238 252
244 244 245 248 250 253 256 259 262 262 262 260 257 257 255 249 245 246 248 254 260 260 260 267 269 267 267 264 259 259 266 275 285 297 303 302 299 300 297 289 292 310 314 311 311 312 311 304 238 106 87 84 77 66 58 56 56 58 50 10 17 37 135 115 81 58 49 48 69 105 92 76 82 87 82 74 64 60 56 43 36 36 354 296 296
243 244 245 248 251 253 254 255 255 255 256 256 255 253 251 248 247 248 248 253 258 257 252 255 257 257 262 264 257 256 266 278 286 288 291 293 289 282 280 283 310 351 334 316 346 25 95 119 112 102 94 91 88 79 73 70 67 68 65 45 32 38 119 122 84 63 57 58 71 92 86 70 77 93 88 76 66 61 55 48 43 39 26 12 358
232 230 233 239 244 252 256 255 252 249 249 254 260 262 258 253 249 248 251 256 257 254 248 246 247 249 253 256 252 250 258 269 272 271 278 286 281 273 278 286 324 36 110 131 120 111 113 111 106 101 95 90 87 78 70 68 69 70 65 50 34 33 68 127 120 83 59 52 57 77 76 60 67 100 99 79 66 59 53 49 48 45 42 43 43
222 225 229 232 233 244 258 259 254 251 249 253 262 269 269 264 257 255 258 259 255 250 245 239 237 236 236 238 238 233 236 250 260 268 283 295 294 291 292 289 310 96 130 134 127 119 115 109 100 92 83 75 72 67 64 65 64 65 67 60 49 48 68 102 111 91 56 42 43 63 79 66 63 75 86 81 71 59 49 44 44 46 51 52 52